EUTELSAT 70B

Last updated on Thu Nov 21 2024 00:02:42 GMT+0000 (Coordinated Universal Time)

1 39020U 12069A 24324.95150562 -.00000043 00000+0 00000+0 0 9996 2 39020 0.0648 4.0592 0004458 228.6209 239.8509 1.00272017 43759
UTC large
Height (km)
Speed (km/s)
/
Latitude / Longitude
Inclination (degrees)
Orbital Period (minutes)
Azimuth
Elevation
Range (km)
Doppler Factor

Next 0 passes for location: London (51.5072 / 0.1276)

Sorry there are no passes over London.